TimeCST,TemperatureF,Dew PointF,Humidity,Sea Level PressureIn,VisibilityMPH,Wind Direction,Wind SpeedMPH,Gust SpeedMPH,PrecipitationIn,Events,Conditions,WindDirDegrees,DateUTC
12:15 AM,54.0,45.9,74,30.02,10.0,South,9.2,-,N/A,,Clear,190,2012-11-30 06:15:00
12:35 AM,53.2,45.9,76,30.02,10.0,South,8.1,-,N/A,,Clear,180,2012-11-30 06:35:00
12:55 AM,52.7,46.0,78,30.02,10.0,South,6.9,-,N/A,,Clear,180,2012-11-30 06:55:00
1:15 AM,52.3,46.4,80,30.02,10.0,South,6.9,-,N/A,,Clear,180,2012-11-30 07:15:00
1:35 AM,51.8,46.6,82,30.02,10.0,South,5.8,-,N/A,,Clear,180,2012-11-30 07:35:00
1:55 AM,52.2,47.3,83,30.01,10.0,South,5.8,-,N/A,,Clear,180,2012-11-30 07:55:00
2:15 AM,51.8,47.3,85,30.01,10.0,South,9.2,-,N/A,,Clear,190,2012-11-30 08:15:00
2:35 AM,50.5,46.9,87,30.01,10.0,South,8.1,-,N/A,,Clear,180,2012-11-30 08:35:00
2:55 AM,49.8,46.8,89,30.01,10.0,South,5.8,-,N/A,,Clear,180,2012-11-30 08:55:00
3:15 AM,49.1,46.6,91,30.01,10.0,SSW,4.6,-,N/A,,Clear,200,2012-11-30 09:15:00
3:35 AM,47.5,46.6,97,30.01,10.0,South,3.5,-,N/A,,Clear,190,2012-11-30 09:35:00
3:55 AM,48.2,48.2,100,30.02,10.0,Calm,Calm,-,N/A,,Clear,0,2012-11-30 09:55:00
4:15 AM,47.1,46.9,99,30.01,10.0,Calm,Calm,-,N/A,,Clear,0,2012-11-30 10:15:00
4:35 AM,44.6,44.6,100,30.01,10.0,South,3.5,-,N/A,,Clear,180,2012-11-30 10:35:00
4:55 AM,44.6,44.6,100,30.01,10.0,Calm,Calm,-,N/A,,Clear,0,2012-11-30 10:55:00
5:15 AM,45.1,45.1,100,30.02,7.0,Calm,Calm,-,N/A,,Clear,0,2012-11-30 11:15:00
5:35 AM,42.4,42.4,100,30.02,7.0,Calm,Calm,-,N/A,,Clear,0,2012-11-30 11:35:00
5:55 AM,39.2,39.2,100,30.02,4.0,NE,5.8,-,N/A,,Clear,40,2012-11-30 11:55:00
6:15 AM,43.0,43.0,100,30.03,5.0,ENE,4.6,-,N/A,,Clear,70,2012-11-30 12:15:00
6:35 AM,40.5,40.5,100,30.03,4.0,ENE,3.5,-,N/A,,Clear,70,2012-11-30 12:35:00
6:55 AM,39.4,39.4,100,30.04,3.0,East,3.5,-,N/A,,Clear,80,2012-11-30 12:55:00
7:15 AM,39.4,39.4,100,30.04,0.5,Calm,Calm,-,N/A,Fog,Fog,0,2012-11-30 13:15:00
7:35 AM,37.2,37.2,100,30.04,0.2,Calm,Calm,-,N/A,Fog,Fog,0,2012-11-30 13:35:00
7:55 AM,37.4,37.4,100,30.05,0.2,Calm,Calm,-,N/A,Fog,Fog,0,2012-11-30 13:55:00
8:15 AM,37.9,37.9,100,30.06,0.2,Calm,Calm,-,N/A,Fog,Fog,0,2012-11-30 14:15:00
8:35 AM,39.9,39.9,100,30.06,0.2,Calm,Calm,-,N/A,Fog,Fog,0,2012-11-30 14:35:00
8:55 AM,41.9,41.9,100,30.06,0.2,Calm,Calm,-,N/A,Fog,Fog,0,2012-11-30 14:55:00
9:15 AM,43.9,43.9,100,30.06,0.2,Calm,Calm,-,N/A,Fog,Fog,0,2012-11-30 15:15:00
9:35 AM,47.1,47.1,100,30.07,1.2,Calm,Calm,-,N/A,,Overcast,0,2012-11-30 15:35:00
9:55 AM,48.2,48.2,100,30.07,4.0,Calm,Calm,-,N/A,,Overcast,0,2012-11-30 15:55:00
10:15 AM,49.3,49.3,100,30.06,3.0,South,4.6,-,N/A,,Overcast,170,2012-11-30 16:15:00
10:35 AM,50.4,50.4,100,30.06,5.0,SSE,4.6,-,N/A,,Mostly Cloudy,150,2012-11-30 16:35:00
10:55 AM,52.0,52.0,100,30.05,7.0,South,4.6,-,N/A,,Clear,170,2012-11-30 16:55:00
11:15 AM,52.7,52.7,100,30.04,7.0,SSE,4.6,-,N/A,,Clear,150,2012-11-30 17:15:00
11:35 AM,54.5,54.1,99,30.03,10.0,SE,5.8,-,N/A,,Clear,140,2012-11-30 17:35:00
11:55 AM,56.5,54.0,91,30.03,10.0,South,4.6,-,N/A,,Clear,170,2012-11-30 17:55:00
12:15 PM,57.9,52.7,83,30.02,10.0,Calm,Calm,-,N/A,,Clear,0,2012-11-30 18:15:00
12:35 PM,59.7,53.1,79,30.01,10.0,SSE,5.8,-,N/A,,Clear,160,2012-11-30 18:35:00
12:55 PM,61.0,52.9,75,30.00,10.0,SE,8.1,-,N/A,,Clear,140,2012-11-30 18:55:00
1:15 PM,61.2,52.9,74,30.00,10.0,SE,6.9,-,N/A,,Clear,140,2012-11-30 19:15:00
1:35 PM,62.6,52.7,70,29.99,10.0,ESE,5.8,-,N/A,,Clear,120,2012-11-30 19:35:00
1:55 PM,63.7,51.4,64,29.98,10.0,ESE,8.1,-,N/A,,Clear,120,2012-11-30 19:55:00
2:15 PM,63.7,51.8,65,29.98,10.0,South,5.8,-,N/A,,Clear,180,2012-11-30 20:15:00
2:35 PM,65.3,52.7,64,29.97,10.0,SE,6.9,-,N/A,,Clear,140,2012-11-30 20:35:00
2:55 PM,65.8,53.6,65,29.97,10.0,SSE,5.8,-,N/A,,Clear,160,2012-11-30 20:55:00
3:15 PM,67.1,54.0,63,29.96,10.0,SSE,3.5,-,N/A,,Clear,160,2012-11-30 21:15:00
3:35 PM,68.4,53.2,58,29.96,10.0,South,10.4,-,N/A,,Clear,190,2012-11-30 21:35:00
3:55 PM,67.3,53.4,61,29.96,10.0,South,11.5,-,N/A,,Scattered Clouds,170,2012-11-30 21:55:00
4:15 PM,66.2,52.3,61,29.96,10.0,South,11.5,-,N/A,,Scattered Clouds,190,2012-11-30 22:15:00
4:35 PM,66.0,53.1,63,29.96,10.0,South,5.8,-,N/A,,Clear,180,2012-11-30 22:35:00
4:55 PM,65.3,52.7,64,29.97,10.0,South,8.1,-,N/A,,Clear,180,2012-11-30 22:55:00
5:15 PM,63.9,52.0,65,29.96,10.0,South,5.8,-,N/A,,Clear,170,2012-11-30 23:15:00
5:35 PM,61.7,51.4,69,29.96,10.0,SSE,4.6,-,N/A,,Clear,160,2012-11-30 23:35:00
5:55 PM,61.7,51.8,70,29.97,10.0,SE,3.5,-,N/A,,Clear,140,2012-11-30 23:55:00
6:15 PM,57.9,50.2,75,29.97,10.0,ESE,3.5,-,N/A,,Clear,110,2012-12-01 00:15:00
6:35 PM,55.6,49.5,80,29.97,10.0,ESE,4.6,-,N/A,,Clear,110,2012-12-01 00:35:00
6:55 PM,56.5,50.5,80,29.97,10.0,SE,3.5,-,N/A,,Clear,130,2012-12-01 00:55:00
7:15 PM,54.9,50.2,84,29.97,10.0,ESE,3.5,-,N/A,,Clear,120,2012-12-01 01:15:00
7:35 PM,54.7,50.2,85,29.96,10.0,SE,4.6,-,N/A,,Clear,130,2012-12-01 01:35:00
7:55 PM,54.7,50.4,85,29.96,10.0,SSE,3.5,-,N/A,,Clear,150,2012-12-01 01:55:00
8:15 PM,50.2,47.7,91,29.96,10.0,Calm,Calm,-,N/A,,Clear,0,2012-12-01 02:15:00
8:35 PM,48.2,46.6,94,29.96,10.0,SW,3.5,-,N/A,,Clear,220,2012-12-01 02:35:00
8:55 PM,49.3,49.3,100,29.96,10.0,Calm,Calm,-,N/A,,Clear,0,2012-12-01 02:55:00
9:15 PM,50.7,50.5,99,29.95,10.0,SSE,3.5,-,N/A,,Clear,150,2012-12-01 03:15:00
9:35 PM,51.3,49.8,95,29.95,10.0,Calm,Calm,-,N/A,,Clear,0,2012-12-01 03:35:00
9:55 PM,50.5,50.0,98,29.94,10.0,SSE,3.5,-,N/A,,Clear,150,2012-12-01 03:55:00
10:15 PM,50.9,50.9,100,29.94,10.0,South,4.6,-,N/A,,Clear,170,2012-12-01 04:15:00
10:35 PM,54.7,52.5,92,29.94,10.0,South,5.8,-,N/A,,Clear,170,2012-12-01 04:35:00
10:55 PM,54.0,53.6,99,29.94,10.0,SSE,8.1,-,N/A,,Clear,150,2012-12-01 04:55:00
11:15 PM,54.1,54.1,100,29.93,10.0,SSE,6.9,-,N/A,,Clear,160,2012-12-01 05:15:00
11:35 PM,54.9,54.9,100,29.92,10.0,South,6.9,-,N/A,,Clear,170,2012-12-01 05:35:00
11:55 PM,56.3,56.3,100,29.92,10.0,South,9.2,-,N/A,,Clear,170,2012-12-01 05:55:00